User: anonymous   Login
Location: Waldport
(44.4270°N, 124.0680°W)
Time: 04:34:02
(UTC-08:00)
Language:

Cosmos 1570 Rocket - Orbit

View from above orbital plane
View from above orbital plane
View from above satellite
View from above satellite

Ground track
Ground track

The orbit data is extracted from the following two-line orbital elements,

1 15032U 84056B   15063.72607681  .00000311  00000-0  11931-3 0  9999
2 15032 074.0724 163.2813 0017344 180.4535 338.7460 14.34532140607119
Epoch (UTC): 04 March 2015 17:25:33
Eccentricity: 0.0017344
inclination: 74.0724°
perigee height: 764 km
apogee height: 789 km
right ascension of ascending node: 163.2813°
argument of perigee: 180.4535°
revolutions per day: 14.34532140
mean anomaly at epoch: 338.7460°
orbit number at epoch: 60711

The dashed part of the orbit path shows where the satellite is in the earth's shadow,  

DLR